User: anonymous   Login
Location: Unspecified
(0.0000°N, 0.0000°E)
Time: 13:06:53
(UTC+00:00)
Language:

SR - Orbit

View from above orbital plane
View from above orbital plane
View from above satellite
View from above satellite

Ground track
Ground track

The orbit data is extracted from the following two-line orbital elements,

1 00046U 60007B   16243.17003227  .00000130  00000-0  49651-4 0  9994
2 00046  66.6904 194.0972 0203279  84.9839 277.4438 14.48918179938095
Epoch (UTC): 30 August 2016 04:04:50
Eccentricity: 0.0203279
inclination: 66.6904°
perigee height: 585 km
apogee height: 873 km
right ascension of ascending node: 194.0972°
argument of perigee: 84.9839°
revolutions per day: 14.48918179
mean anomaly at epoch: 277.4438°
orbit number at epoch: 93809

The dashed part of the orbit path shows where the satellite is in the earth's shadow,  

DLR